Trenton, NJ

1:52 PM EDT on June 27, 2017 (GMT -0400)
Trenton Mercer

Weather History for KTTN - August, 2013

Change the Weather History Date:

Saturday, August 24, 2013

  Actual Average Record
Temperature  
Mean Temperature 69 °F 73 °F  
Max Temperature 79 °F 83 °F 93 °F (1898)
Min Temperature 59 °F 63 °F 50 °F (1994)
Degree Days  
Heating Degree Days 0 0  
Month to date heating degree days 0 0  
Since 1 June heating degree days 4 24  
Since 1 July heating degree days 0 0  
Cooling Degree Days 4 8  
Month to date cooling degree days 162 227  
Year to date cooling degree days 884 804  
Since 1 June cooling degree days 794 747  
Growing Degree Days 20 (Base 50)    
Moisture  
Dew Point 52 °F    
Average Humidity 60    
Maximum Humidity 84    
Minimum Humidity 35    
Precipitation  
Precipitation 0.00 in 0.13 in 2.15 in (1901)
Month to date precipitation 3.53 3.32  
Year to date precipitation 31.95 30.20  
Sea Level Pressure  
Sea Level Pressure 30.24 in    
Wind  
Wind Speed 6 mph (NNE)    
Max Wind Speed 14 mph    
Max Gust Speed 20 mph    
Visibility 10 miles    
Events      
T = Trace of Precipitation, MM = Missing Value Source: NWS Daily Summary

Daily Weather History Graph

Daily Weather History Graph

Search for Another Location

Airport or City:

Trip Planner

Search our weather history database for the weather conditions in past years. The results will help you decide how hot, cold, wet, or windy it might be!

Date:

Astronomy

Aug. 24, 2013 Rise Set
Actual Time 6:19 AM EDT 7:43 PM EDT
Civil Twilight 5:50 AM EDT 8:11 PM EDT
Nautical Twilight 5:16 AM EDT 8:45 PM EDT
Astronomical Twilight 4:40 AM EDT 9:21 PM EDT
Moon 9:35 PM EDT (8/24) 10:16 AM EDT (8/24)
Length of Visible Light 14h 20m
Length of Day
13h 23m
Waning Gibbous, 84% of the Moon is Illuminated
Aug 24
Waning Gibbous
Aug 28
Last Quarter
Sep 5
New
Sep 12
First Quarter
Sep 19
Full

Hourly Weather History & Observations

Time (EDT) Temp. Dew Point Humidity Pressure Visibility Wind Dir Wind Speed Gust Speed Precip Events Conditions
12:53 AM 66.9 °F 57.9 °F 73% 30.10 in 10.0 mi North 5.8 mph - N/A   Overcast
1:53 AM 64.9 °F 55.9 °F 73% 30.10 in 10.0 mi North 5.8 mph - N/A   Clear
2:53 AM 64.0 °F 54.0 °F 70% 30.12 in 10.0 mi North 6.9 mph - N/A   Clear
3:53 AM 64.0 °F 52.0 °F 65% 30.14 in 10.0 mi NNE 8.1 mph - N/A   Clear
4:53 AM 64.0 °F 51.1 °F 63% 30.16 in 10.0 mi NNE 6.9 mph - N/A   Clear
5:53 AM 63.0 °F 50.0 °F 63% 30.18 in 10.0 mi NNE 8.1 mph - N/A   Clear
6:53 AM 62.1 °F 50.0 °F 65% 30.21 in 10.0 mi NE 4.6 mph - N/A   Clear
7:53 AM 64.9 °F 51.1 °F 61% 30.23 in 10.0 mi NE 5.8 mph - N/A   Clear
8:53 AM 68.0 °F 52.0 °F 56% 30.25 in 10.0 mi NE 12.7 mph - N/A   Clear
9:53 AM 69.1 °F 53.1 °F 57% 30.27 in 10.0 mi ENE 8.1 mph - N/A   Clear
10:53 AM 73.0 °F 53.1 °F 49% 30.27 in 10.0 mi NE 10.4 mph 17.3 mph N/A   Clear
11:53 AM 73.9 °F 51.1 °F 45% 30.27 in 10.0 mi NNE 5.8 mph 19.6 mph N/A   Clear
12:53 PM 75.9 °F 50.0 °F 40% 30.27 in 10.0 mi North 8.1 mph - N/A   Clear
1:53 PM 78.1 °F 50.0 °F 37% 30.27 in 10.0 mi NNE 8.1 mph 16.1 mph N/A   Clear
2:53 PM 78.1 °F 50.0 °F 37% 30.27 in 10.0 mi East 10.4 mph - N/A   Clear
3:53 PM 78.1 °F 48.9 °F 36% 30.26 in 10.0 mi NNE 8.1 mph - N/A   Clear
4:53 PM 78.1 °F 48.9 °F 36% 30.27 in 10.0 mi North 3.5 mph - N/A   Clear
5:53 PM 77.0 °F 50.0 °F 39% 30.27 in 10.0 mi East 6.9 mph - N/A   Clear
6:53 PM 75.0 °F 52.0 °F 44% 30.27 in 10.0 mi Calm Calm - N/A   Clear
7:53 PM 72.0 °F 51.1 °F 48% 30.29 in 10.0 mi Calm Calm - N/A   Clear
8:53 PM 69.1 °F 54.0 °F 58% 30.31 in 10.0 mi Calm Calm - N/A   Clear
9:53 PM 66.0 °F 55.0 °F 68% 30.32 in 10.0 mi South 3.5 mph - N/A   Clear
10:53 PM 63.0 °F 55.9 °F 78% 30.33 in 10.0 mi Calm Calm - N/A   Clear
11:53 PM 61.0 °F 55.0 °F 81% 30.34 in 10.0 mi Calm Calm - N/A   Clear